Location: Elblag
(54.0944°N, 19.4042°E)
Time: 23:41:11
(UTC+01:00)

ISS - Visible Passes

Search period start: 21 January 2018 00:00
Search period end: 31 January 2018 00:00
Orbit: 402 x 407 km, 51.6° (Epoch: 22 January)

Date Brightness Start Highest point End Pass type
(mag) Time Alt. Az. Time Alt. Az. Time Alt. Az.
27 Jan -1.5 18:05:05 10° S 18:06:25 13° SSE 18:06:25 13° SSE visible
28 Jan -1.8 18:47:30 10° SW 18:49:02 21° SSW 18:49:02 21° SSW visible
29 Jan -2.2 17:55:36 10° SSW 17:58:11 22° SSE 17:58:54 20° SE visible
29 Jan -0.7 19:31:03 10° WSW 19:31:34 14° WSW 19:31:34 14° WSW visible
30 Jan -1.6 17:03:59 10° S 17:06:01 15° SE 17:08:02 10° ESE visible
30 Jan -2.8 18:38:48 10° WSW 18:41:23 38° SSW 18:41:23 38° SSW visible
